Starlink 32961

operational
NORAD ID: 63122 Int'l Des: 2025-039 Owner: SPXS Country: US Constellation: starlink
LEOCIRCULAR

Über Starlink 32961

Beschreibung wird geladen...

Live-Position

3D-Globus wird geladen...

Nächste Überflüge

Höhenverlauf

Altitude vs Time

uPlot chart will show altitude changes over time

Zweizeiliger Elementsatz

1 63122U 25039U 25303.62112603 .00052168 00000-0 18910-2 0 9990
2 63122 42.9995 27.4138 0000455 5.1747 354.9109 15.27596546 38177
Epoch: 30. Okt. 2025 • Age: 29 hours

Aktueller Status

Höhe 495.9 km
Geschwindigkeit 7.62 km/s
Subsatellitenpunkt -42.86°S, 47.01°W
Startdatum 27. Feb. 2025
Alter 0.6 years
Typ internet

Technische Details

Klassifizierung Payload
Masse 730.00 kg
Trockenmasse 700.00 kg
Gesamtmasse 730.00 kg
Länge 0.30 m
Durchmesser 4.10 m
Spannweite 29.00 m
Form Box + pan
Hersteller SPXS
Bus-Typ Starlink V2M
Phasenstatus In Orbit
Besitzer/Staat SPXS/US

Große Konstellationen

Loading constellations...